TimeCDT,TemperatureF,Dew PointF,Humidity,Sea Level PressureIn,VisibilityMPH,Wind Direction,Wind SpeedMPH,Gust SpeedMPH,PrecipitationIn,Events,Conditions,WindDirDegrees,DateUTC
12:53 AM,78.1,73.9,87,29.99,10.0,ESE,3.5,-,0.00,Rain,Rain,110,2013-08-20 05:53:00
1:53 AM,79.0,75.0,88,29.99,10.0,East,5.8,-,0.00,Rain,Rain,100,2013-08-20 06:53:00
2:53 AM,79.0,75.9,90,29.99,10.0,ESE,4.6,-,0.00,Rain,Rain,110,2013-08-20 07:53:00
3:53 AM,79.0,75.9,90,29.98,10.0,ESE,4.6,-,0.00,Rain,Rain,110,2013-08-20 08:53:00
4:53 AM,78.1,75.0,90,29.98,10.0,Calm,Calm,-,0.00,Rain,Rain,0,2013-08-20 09:53:00
5:53 AM,77.0,75.0,94,29.99,10.0,SE,5.8,-,0.00,Rain,Rain,140,2013-08-20 10:53:00
6:53 AM,78.1,75.0,90,30.00,10.0,Calm,Calm,-,0.00,Rain,Rain,0,2013-08-20 11:53:00
7:53 AM,81.0,77.0,88,30.02,10.0,SE,3.5,-,0.00,Rain,Rain,140,2013-08-20 12:53:00
8:53 AM,84.0,75.9,76,30.03,10.0,East,5.8,-,0.00,,Partly Cloudy,100,2013-08-20 13:53:00
9:53 AM,84.9,75.0,72,30.05,10.0,East,5.8,-,N/A,,Scattered Clouds,90,2013-08-20 14:53:00
10:53 AM,87.1,73.0,63,30.05,10.0,SE,12.7,-,N/A,,Scattered Clouds,130,2013-08-20 15:53:00
11:53 AM,89.1,71.1,55,30.04,10.0,ESE,6.9,-,N/A,,Partly Cloudy,110,2013-08-20 16:53:00
12:53 PM,89.1,73.0,59,30.03,10.0,East,6.9,-,N/A,,Mostly Cloudy,90,2013-08-20 17:53:00
1:53 PM,89.1,75.0,63,30.01,10.0,ESE,10.4,-,N/A,,Scattered Clouds,110,2013-08-20 18:53:00
2:53 PM,90.0,75.0,61,30.00,10.0,East,8.1,-,N/A,,Scattered Clouds,90,2013-08-20 19:53:00
3:53 PM,84.9,73.0,67,30.00,10.0,SE,10.4,-,N/A,,Partly Cloudy,130,2013-08-20 20:53:00
4:53 PM,84.9,75.9,74,30.00,10.0,East,6.9,-,N/A,,Scattered Clouds,100,2013-08-20 21:53:00
5:51 PM,84.2,75.2,74,30.01,10.0,South,6.9,-,N/A,,Mostly Cloudy,170,2013-08-20 22:51:00
5:53 PM,84.0,75.0,74,29.99,10.0,SSE,5.8,-,N/A,,Mostly Cloudy,160,2013-08-20 22:53:00
6:10 PM,84.2,75.2,74,30.01,10.0,South,5.8,-,N/A,,Scattered Clouds,170,2013-08-20 23:10:00
6:53 PM,84.0,73.9,72,30.01,10.0,ESE,4.6,-,N/A,,Clear,110,2013-08-20 23:53:00
7:53 PM,84.0,75.9,76,30.02,10.0,ENE,5.8,-,N/A,,Scattered Clouds,70,2013-08-21 00:53:00
8:53 PM,82.9,75.9,79,30.02,10.0,ESE,6.9,-,N/A,,Clear,110,2013-08-21 01:53:00
9:53 PM,82.0,75.9,82,30.03,10.0,SE,5.8,-,N/A,,Scattered Clouds,140,2013-08-21 02:53:00
10:53 PM,81.0,75.9,85,30.04,10.0,SE,8.1,-,N/A,,Clear,140,2013-08-21 03:53:00
11:53 PM,81.0,75.9,85,30.05,10.0,SE,5.8,-,N/A,,Clear,130,2013-08-21 04:53:00